RH
7 7 7 8 8 8 9 10 9 10 10 10 9 10 10 11 11 13 13 14 16 21 24 26 28 26 27 28 27 25 19 13 10 6 6 9 15 14 13 12 13 17 18 17 14 11 8
11 13 13 13 12 12 11 10 11 11 10 10 10 9 8 8 9 9 9 9 9 9 9 9 12 10 10 11 13 15 22 22 20 20 17 15 11 11 12 13 12 13 20 20 18 14 10
20 21 22 22 23 23 24 22 18 18 16 13 12 11 11 10 10 9 9 10 10 10 10 9 9 9 10 9 9 9 9 10 10 13 20 27 25 24 22 19 20 16 14 19 21 19 16
17 17 18 19 20 21 21 21 23 24 24 24 22 19 16 14 14 14 13 13 12 13 13 12 11 10 10 11 10 10 10 10 9 9 9 11 17 24 30 28 28 29 26 18 20 21 20
14 15 17 18 17 17 18 19 18 18 17 17 20 22 24 18 15 14 14 14 14 15 15 16 16 15 12 13 13 12 12 11 11 10 10 10 11 14 18 29 33 40 28 27 21 18 19
15 16 17 17 15 14 15 14 12 12 11 13 14 19 23 24 27 24 24 20 20 19 20 20 18 17 15 16 14 13 13 13 13 12 12 12 12 11 18 34 25 20 11 24 30 34 32
10 12 16 18 16 14 12 10 8 8 8 9 14 26 28 29 27 28 29 30 26 25 26 27 24 24 21 17 15 14 16 15 14 14 14 13 12 14 26 18 13 15 15 16 39 44 24
10 11 12 12 12 11 9 6 5 4 4 5 9 24 27 28 28 31 32 34 31 28 29 33 32 29 28 27 20 17 17 18 17 16 16 15 15 19 18 20 18 16 15 16 16 24 16
7 8 9 8 6 5 5 4 4 4 4 5 10 32 32 31 34 31 31 31 32 31 27 35 37 34 32 30 28 23 20 18 18 18 20 18 20 20 18 20 18 18 17 16 13 17 13
5 6 6 6 6 5 6 6 5 4 4 4 9 31 32 31 29 31 34 35 31 32 28 29 32 35 32 29 27 25 23 21 20 19 19 17 21 18 17 17 17 14 21 18 16 15 13
16 16 18 17 13 10 9 8 6 5 6 13 22 33 32 29 28 27 30 34 34 35 30 29 34 40 42 40 34 29 26 24 22 20 18 18 19 19 17 17 15 14 14 13 13 13 13
38 34 29 20 15 15 12 7 6 8 16 32 33 31 32 29 31 29 31 32 35 41 40 37 38 39 40 38 33 28 26 24 22 21 21 21 20 18 16 16 16 16 16 15 15 15 14
42 38 31 23 20 17 10 7 11 23 30 36 32 29 30 30 32 34 35 37 42 45 48 40 46 46 43 40 38 34 32 29 28 26 25 24 23 21 19 18 19 20 20 21 21 20 19
19 22 27 29 20 10 6 7 15 32 36 35 32 31 32 36 35 36 40 42 42 43 50 51 52 50 48 46 44 42 39 35 32 29 28 27 26 22 22 22 23 24 25 26 25 24 24
17 16 13 11 7 10 14 15 35 41 39 36 38 36 40 42 43 42 42 41 45 44 42 40 43 49 50 52 52 49 47 44 41 37 33 31 33 30 29 28 29 30 33 34 35 32 31
11 8 7 12 28 42 42 44 44 42 39 36 43 48 47 43 42 42 41 40 41 40 38 36 34 36 36 38 42 44 44 41 41 41 39 36 35 33 31 32 31 32 34 38 44 42 37
31 22 7 18 44 50 48 45 43 41 38 36 36 42 39 40 39 35 34 33 34 38 38 38 36 36 37 40 47 49 43 43 44 46 45 44 42 36 38 38 38 37 35 35 37 44 47
54 52 53 54 56 51 48 45 42 40 37 35 32 34 33 31 30 29 29 28 29 31 38 38 37 40 40 43 42 44 47 53 52 52 50 47 46 45 44 43 40 36 33 31 36 36 40
56 55 53 53 50 49 47 43 39 34 29 25 23 24 28 28 27 25 25 25 25 25 31 32 36 36 38 41 44 43 43 45 48 51 52 48 44 43 40 39 38 37 36 38 53 53 35
57 54 51 46 42 39 36 34 31 28 26 22 20 21 22 24 25 25 25 24 27 28 30 32 32 34 33 32 34 33 34 39 45 48 48 45 42 41 39 39 40 36 35 42 60 50 45
47 44 38 35 33 33 34 32 30 28 26 24 22 20 20 21 22 25 27 28 37 42 42 39 36 35 34 31 30 34 39 37 40 41 40 39 38 40 39 40 52 44 35 38 44 38 40
38 42 42 43 42 40 34 33 28 25 23 20 19 18 18 18 21 28 29 28 29 34 30 33 34 33 34 35 36 32 38 41 41 39 40 38 38 42 34 47 68 46 40 39 32 31 32
41 41 40 40 38 37 29 21 19 19 18 18 28 32 31 26 28 27 21 19 17 17 18 21 25 26 30 38 38 36 35 34 33 31 30 32 39 55 26 51 62 39 41 37 38 53 66
39 30 22 18 16 14 15 17 19 20 24 27 32 30 22 21 16 11 8 7 6 9 9 12 19 22 25 27 32 33 33 33 31 29 36 38 83 100 74 87 67 58 53 68 87 92 82
18 15 13 11 12 15 17 22 27 26 19 13 9 6 4 4 4 4 4 4 6 7 12 15 28 33 30 30 34 34 35 36 40 38 49 55 100 100 100 98 98 86 92 97 91 79 82
10 9 9 9 10 12 14 16 14 8 5 5 5 5 5 5 5 10 9 8 13 20 31 28 48 54 58 52 52 52 36 53 71 79 90 100 100 100 100 100 98 85 83 82 84 87 100
9 9 9 9 10 12 11 7 4 4 5 5 6 8 83 42 10 20 22 20 25 49 93 90 100 97 100 83 85 100 100 100 95 98 97 82 86 100 100 100 93 83 78 88 100 100 91
8 8 9 9 9 8 5 5 7 11 27 51 35 72 100 100 100 83 76 75 78 98 100 100 100 99 100 100 100 98 95 96 100 100 100 98 92 91 100 100 92 89 87 100 100 99 91
3 3 2 3 3 5 7 18 43 97 100 100 100 100 100 100 99 97 100 96 98 100 99 100 100 100 100 100 79 97 100 100 100 100 100 100 100 100 100 100 93 83 95 96 98 100 100
Wind_Speed
12 12 13 13 14 14 14 13 14 15 16 16 16 15 15 16 18 19 20 21 23 24 25 26 24 23 21 23 23 22 21 21 21 21 23 25 26 27 27 29 31 29 28 28 28 29 31
13 13 13 14 13 14 14 16 17 18 18 19 20 21 22 22 22 23 22 22 23 23 23 24 24 22 22 23 22 25 24 25 24 24 25 25 24 25 26 26 28 30 29 29 28 28 29
15 15 15 16 15 15 15 15 15 16 17 19 22 23 24 25 26 27 26 24 24 25 25 25 25 25 24 28 27 26 26 27 27 27 28 27 27 27 27 26 26 25 29 29 27 29 30
10 10 12 13 14 15 16 18 19 19 20 22 23 23 23 24 25 25 27 28 29 29 29 28 28 30 28 29 31 29 29 29 28 28 29 29 29 29 27 27 27 25 26 24 26 32 35
8 10 11 12 14 14 16 17 19 21 23 25 27 30 29 27 27 29 29 30 30 31 34 33 32 32 32 33 33 34 32 33 32 31 30 30 30 30 27 27 31 27 31 27 22 27 34
13 13 12 12 14 17 18 19 21 22 24 27 30 32 31 32 32 33 34 35 35 34 34 34 36 34 34 32 34 37 38 37 34 34 35 35 34 33 27 28 34 34 34 30 22 24 31
18 18 20 19 20 20 21 24 26 28 29 30 34 34 32 31 31 33 34 36 38 38 37 38 40 38 39 37 37 36 38 40 38 36 36 39 37 30 29 37 38 35 34 33 26 30 37
21 23 23 25 26 26 26 27 29 30 31 33 37 37 36 37 36 37 37 37 38 42 35 38 41 42 42 41 39 36 38 42 40 37 37 39 35 33 39 38 37 37 38 36 36 36 43
25 26 27 28 29 31 32 33 33 34 35 36 37 35 36 39 38 38 39 42 41 41 47 32 35 38 42 44 40 35 37 39 36 34 35 40 33 36 38 38 38 42 40 40 43 40 44
32 31 31 33 35 36 36 37 38 39 40 41 40 38 39 38 41 42 43 44 46 46 49 45 42 35 33 34 37 34 34 37 37 38 38 40 37 39 41 39 41 45 42 44 44 46 46
38 37 37 35 35 38 40 39 37 38 40 41 40 39 40 41 42 42 42 43 45 46 47 45 44 41 37 35 34 36 37 39 39 39 41 42 41 42 42 40 43 44 45 47 48 50 52
41 41 40 39 37 38 39 39 39 41 40 38 39 40 42 44 42 44 44 45 45 46 47 46 45 41 38 37 36 36 37 37 40 42 43 42 44 44 44 45 46 47 48 50 52 53 56
42 43 42 43 43 42 41 42 44 44 41 41 42 42 42 42 43 44 44 44 47 46 44 48 43 41 41 42 42 42 42 43 45 47 47 46 47 47 47 49 49 50 52 54 57 58 58
42 44 44 46 44 43 45 46 47 45 43 42 44 44 44 43 43 44 44 45 47 46 45 44 44 45 47 48 49 49 50 49 51 52 52 52 50 50 52 53 54 55 56 57 59 61 62
42 42 43 45 46 47 49 50 49 47 47 47 46 47 44 43 43 44 45 48 47 47 49 49 49 50 51 51 51 52 52 52 54 54 55 57 56 57 58 58 58 57 54 56 60 62 66
40 43 45 45 48 51 49 49 50 51 51 50 47 46 48 48 48 48 49 50 52 53 54 53 54 55 55 55 55 55 55 57 58 59 60 59 59 59 61 60 59 58 60 58 59 63 66
48 51 51 52 56 52 51 51 52 53 54 54 54 51 53 52 52 53 55 56 55 57 58 58 58 58 57 58 59 59 60 59 60 61 62 63 64 63 64 64 62 60 60 59 61 64 66
55 54 53 52 50 52 54 54 55 56 59 61 61 60 60 59 59 60 59 60 60 58 60 61 60 61 62 63 62 63 62 63 63 62 62 63 67 66 65 64 65 63 63 62 61 61 62
51 48 50 52 55 55 56 58 60 62 65 67 69 68 66 65 66 65 64 64 64 63 62 62 61 61 61 61 63 62 64 65 65 65 64 62 63 63 62 63 64 62 60 57 52 56 65
52 54 55 56 57 59 61 63 66 70 72 74 74 75 73 72 70 70 70 68 66 64 61 61 60 58 58 57 58 60 61 61 62 63 64 65 64 66 65 64 61 60 54 50 49 56 55
54 56 58 61 64 66 69 72 74 77 78 79 79 80 79 77 76 75 73 70 63 62 61 59 60 59 59 58 58 58 58 59 61 62 64 65 66 64 62 58 54 55 57 53 50 48 51
60 63 65 69 71 73 76 81 84 82 82 85 86 86 84 81 79 74 71 66 63 61 60 57 59 58 59 59 59 58 58 58 59 58 57 57 59 57 58 53 49 54 50 47 47 47 47
66 69 72 75 78 82 86 87 87 86 87 89 87 85 85 82 79 75 66 62 59 60 59 59 60 59 59 56 57 58 58 57 57 55 52 52 51 49 55 46 44 50 42 43 43 43 40
75 78 80 81 83 86 89 90 92 96 97 95 89 83 80 75 72 67 64 63 61 60 61 58 58 57 53 53 53 53 52 51 51 49 48 47 43 42 45 39 43 41 39 36 34 34 36
79 83 86 89 92 94 96 98 98 95 88 85 82 80 77 73 68 66 62 60 60 59 56 55 51 50 49 49 48 47 45 46 43 42 39 37 37 40 39 37 38 37 32 30 33 33 35
85 89 92 95 96 98 99 98 94 88 84 81 77 72 73 72 66 60 59 56 54 51 49 46 44 42 42 40 40 40 39 36 33 28 25 28 30 30 30 35 37 35 34 32 35 34 30
92 95 96 98 100 102 101 97 93 86 80 73 65 50 49 55 44 46 47 45 43 36 36 30 30 35 32 32 30 29 28 30 29 26 25 23 24 27 28 30 33 30 31 29 30 33 35
95 99 103 106 108 106 97 88 77 62 49 43 41 38 37 45 45 43 25 24 24 24 26 32 39 31 22 24 30 29 30 30 32 30 28 25 25 26 29 33 35 33 33 30 37 38 38
100 103 104 102 99 91 80 59 40 30 34 34 33 32 39 33 41 25 19 25 20 24 19 23 28 31 31 35 28 19 25 23 24 24 24 26 29 31 33 35 35 35 36 36 37 36 34
Wind_Direction
38 32 27 22 17 17 16 12 4 355 349 346 340 336 331 325 322 320 319 318 317 314 313 311 308 308 309 305 310 307 306 306 307 301 296 294 292 291 289 288 286 287 285 288 286 274 273
23 17 10 6 0 356 352 349 345 341 337 334 333 329 324 321 321 320 319 318 317 315 315 314 307 304 304 302 304 301 299 297 296 294 294 294 292 293 293 293 295 288 280 283 287 290 276
18 18 20 15 13 9 8 5 355 348 341 331 326 321 316 314 312 311 308 306 305 306 306 306 305 301 301 298 298 295 293 289 290 289 287 286 286 285 290 291 297 294 284 277 281 282 281
2 1 0 5 0 359 357 356 355 354 350 345 338 329 323 319 316 314 312 310 308 307 306 302 299 297 297 294 295 295 292 290 290 287 287 284 282 281 285 287 289 284 289 285 273 273 277
330 332 340 344 342 343 346 347 347 346 343 340 338 334 326 318 313 310 307 305 304 305 305 304 302 297 292 290 290 290 289 289 290 287 286 284 282 282 285 283 279 281 278 278 276 275 274
315 315 317 321 324 328 331 331 330 331 332 328 329 325 322 318 315 309 306 304 304 303 303 302 298 296 297 292 288 287 286 285 282 282 282 281 279 284 287 276 271 269 283 284 274 270 271
311 309 311 310 312 315 319 322 324 325 325 324 324 322 312 307 305 302 303 305 304 301 298 296 296 296 293 288 288 286 284 281 281 281 278 276 278 286 269 268 282 283 279 277 279 274 271
305 306 306 308 308 309 311 315 317 319 321 321 323 323 316 310 312 310 310 308 305 304 298 294 292 290 288 288 286 282 280 278 279 277 273 274 277 274 274 275 276 278 279 278 276 273 274
299 300 301 301 305 308 309 310 311 312 315 316 320 320 321 314 309 308 307 308 307 305 302 295 286 286 289 289 284 278 276 277 277 273 269 271 276 268 273 274 277 275 276 278 276 273 276
299 298 299 299 301 301 303 305 307 309 312 314 317 316 316 313 309 306 301 301 300 300 297 300 295 291 286 285 281 279 273 272 271 271 271 274 272 272 271 272 273 277 276 277 278 277 278
297 298 299 299 301 300 302 302 303 304 307 311 313 310 310 309 307 305 303 300 300 297 295 301 298 297 295 290 283 274 271 269 267 267 271 273 271 270 270 272 271 275 276 277 278 279 281
297 295 296 296 297 299 301 302 302 303 306 308 308 306 303 303 304 304 303 300 298 293 293 293 293 294 291 286 279 275 272 268 267 267 267 266 267 270 271 272 275 277 276 275 274 275 275
296 294 295 295 296 298 300 301 303 304 307 306 304 302 301 303 304 303 303 301 296 294 298 296 294 290 286 282 278 276 275 274 272 272 270 271 271 272 272 273 272 273 273 274 274 273 275
293 293 294 293 293 295 296 299 302 303 302 299 298 299 300 300 301 301 301 299 298 300 292 290 287 283 279 278 278 278 277 276 276 276 276 275 272 272 272 271 271 273 275 274 274 274 274
295 293 292 292 293 297 299 299 299 297 297 297 298 299 299 300 298 298 297 296 294 293 290 287 286 283 282 281 281 279 278 278 277 277 277 278 277 278 278 278 278 277 279 279 280 277 276
297 294 293 293 296 297 295 294 295 295 296 297 297 298 298 298 296 295 294 294 289 288 286 284 283 282 281 279 277 276 275 275 275 275 275 274 273 273 277 279 280 282 283 280 277 278 277
296 293 290 292 294 293 294 294 293 295 297 298 298 296 294 292 293 292 290 289 286 283 282 280 279 277 275 273 273 274 274 275 275 278 279 278 276 275 277 279 279 277 276 275 275 274 275
296 295 290 290 291 293 293 294 296 297 298 297 298 295 294 293 291 290 288 288 286 281 278 277 276 275 274 274 273 273 276 277 278 279 279 280 280 278 279 280 280 280 279 278 275 274 274
297 298 295 294 295 294 295 296 296 296 297 297 296 295 291 291 289 289 287 286 284 282 280 279 278 277 276 276 277 276 276 277 280 280 280 279 279 279 277 276 274 275 276 277 275 271 272
296 296 296 296 295 295 294 294 294 294 294 293 293 292 290 288 286 285 285 284 284 284 283 283 282 282 281 280 281 281 280 279 277 277 276 276 275 274 273 273 275 274 273 271 268 268 271
294 293 294 294 294 294 293 293 293 293 291 291 289 288 287 287 286 286 286 286 287 288 286 285 285 283 281 281 279 279 277 275 274 273 273 273 273 274 275 276 278 278 276 276 275 275 275
293 292 291 291 290 291 291 291 290 288 287 288 288 287 286 285 287 289 292 294 291 287 286 282 280 277 276 276 275 273 273 273 273 274 276 276 276 276 275 278 280 278 278 279 278 279 280
292 293 292 291 290 289 290 289 287 286 285 285 288 289 288 288 291 293 293 288 286 281 279 277 274 274 274 275 275 273 273 273 274 274 275 275 277 278 277 279 277 275 279 278 280 281 281
293 292 291 290 289 288 287 285 284 285 286 287 290 290 289 291 290 290 286 283 280 277 276 275 275 275 275 274 274 275 276 277 278 278 276 276 275 277 279 280 277 279 281 281 279 282 284
291 291 290 290 288 286 286 285 287 288 289 288 288 287 286 286 286 285 284 282 278 277 275 274 276 277 275 275 275 275 275 275 276 278 279 275 267 274 276 282 279 283 282 278 281 286 284
292 291 290 289 288 289 289 288 288 286 286 286 287 288 287 285 287 280 276 273 272 274 275 277 277 278 277 279 280 280 280 279 280 285 280 269 265 267 267 272 279 284 285 286 278 279 281
295 292 290 288 288 288 288 288 287 291 292 293 292 284 271 280 284 275 274 268 267 268 273 278 279 279 282 285 280 269 270 271 273 277 276 269 264 267 274 274 278 285 290 290 278 279 281
292 290 289 289 288 287 290 294 297 294 287 280 272 265 247 269 279 286 278 287 275 275 244 266 277 273 281 266 275 268 266 269 272 274 271 267 272 276 277 278 283 284 280 268 275 283 281
295 291 290 289 291 294 295 293 282 270 263 264 265 246 259 268 276 265 274 289 266 251 269 279 276 278 268 266 275 259 269 281 272 265 264 272 273 274 275 277 280 281 278 275 280 284 285